Terug naar catalogus

STARLINK-32222

ActiefCommunicatieVLEO
NORAD 60435·PAYLOAD·🇺🇸 United States

Gelanceerd Aug 12, 2024 vanaf Cape Canaveral Space Force Station

Loading…

Volgende Passages (komende 24 uur)

TLE

VersSource: CelesTrak SupGP

Epoch: Sep 15, 2026, 02:40 UTC

1 60435C 24144L   26258.11159722 -.00026934  00000+0 -79612-3 0  2585
2 60435  53.1584  53.0190 0001169  91.2132 164.1612 15.34390538    12

Volg STARLINK-32222 in realtime met AllMySat

Download on the App Store